Погода в Андреево

Россия / Владимирская область     55°56′39″N   41°09′03″E
темп.,
°C
ветер,
м/с
пор.,
м/с
влажн.,
%
обл.,
%
осадки,
мм/ч
давл.,
гПа
погр.,
м
20 июня, вс
вс2000:00+17зюз24863 0.0 102365
03:00+16зюз23950 0.0 102464
06:00+19зюз24803 0.0 1024140
09:00+25зюз23555 0.0 1023645
12:00+29зюз23410 0.0 10231457
15:00+30зюз23370 0.0 10221862
18:00+29зюз23480 0.0 1021379
21:00+21юз12770 0.0 102123
21 июня, пн
пн2100:00+19зюз24915 0.0 102259
03:00+18зюз22965 0.0 102335
06:00+20зюз23825 0.0 1023143
09:00+25юз235693 0.0 1022715
12:00+29юз3340100 0.0 10221505
15:00+29юз3239100 0.0 10211636
18:00+26с0161100 0.0 102114
21:00+21юв227358 0.0 102116
22 июня, вт
вт2200:00+20юз238195 0.0 102249
03:00+18юз228999 0.0 102316
06:00+21ююз1280100 0.0 102291
09:00+26ююз125799 0.0 1022687
12:00+30ююз224092 0.0 10221711
15:00+31юз22355 0.0 10212236
18:00+30ююз124513 0.0 10201107
21:00+22ю11760 0.0 102112
23 июня, ср
ср2300:00+21юз25810 0.0 102169
03:00+20з23900 0.0 102250
06:00+23зсз23780 0.0 1022133
09:00+28зсз22550 0.0 1022724
12:00+32сз11420 0.0 10211896
15:00+33сз32363 0.0 10212533
18:00+30ссз345158 0.0 1020360
21:00+25св117025 0.0 102111
24 июня, чт
чт2400:00+22св23780 0.0 102142
03:00+21з11872 0.0 102111
06:00+23ссз127519 0.0 102199
09:00+29ссз125697 0.0 1021539
12:00+33с12403 0.0 10202059
15:00+34сз223385 0.0 10192809
18:00+25ююв3473100 1.9 1020258
21:00+20ю2274100 4.4 101923